Regional Weather Roundup
Issued by NWS Grand Forks, ND

Home | Current Version | Previous Version | Graphics & Text | Print | Product List | Glossary On
Versions: 1 2 3 4 5 6 7 8 9 10 11 12 13 14 15 16 17 18 19 20 21 22 23 24 25 26 27 28 29 30 31 32 33 34 35 36 37 38 39 40 41 42 43 44 45 46 47 48 49 50
000
ASUS43 KFGF 211131
RWRFGF
PRAIRIE TO PINES  WEATHER ROUNDUP
NATIONAL WEATHER SERVICE EASTERN NORTH DAKOTA/GRAND FORKS ND
600 AM CDT THU AUG 21 2014

 **SATELLITE DATA USED TO AUGMENT SKY COVER AT AUTOMATED STATIONS**
 *****  WEATHER ACROSS EASTERN NORTH DAKOTA  *****

CITY           SKY/WX    TMP DP  RH WIND       PRES   REMARKS
GRAND FORKS    CLOUDY    69  65  86 SE7       29.74R
GRAND FRKS AFB CLOUDY    68  68 100 E1        29.77R
GRAND FRKS NWS   N/A     45 N/A N/A SE3         N/A
DEVILS LAKE    CLOUDY    68  63  83 E7        29.75R
FARGO          CLOUDY    70  68  93 N3        29.73R
WAHPETON ARPT  CLOUDY    68  63  83 S9        29.73R
$$

 ***** WEATHER ACROSS CENTRAL AND WESTERN NORTH DAKOTA  *****

CITY           SKY/WX    TMP DP  RH WIND       PRES   REMARKS
BISMARCK       MOCLDY    65  63  93 NW10      29.79R
MINOT          CLOUDY    64  62  93 NW8       29.79R
JAMESTOWN      CLOUDY    69  67  93 E6        29.74R
MINOT AFB      PTCLDY    63  63 100 W5        29.79R
GARRISON         N/A     64  64 100 NW13G18   29.78R
WILLISTON      FOG       54  54 100 CALM      29.85R VSB 1/2
DICKINSON      CLEAR     55  53  93 W6        29.83R
HETTINGER      PTCLDY    56  53  90 N3        29.86R
$$

 *****  OTHER AIRPORT OBSERVATIONS IN OUR AREA  *****

CITY           SKY/WX    TMP DP  RH WIND       PRES   REMARKS
WALHALLA         N/A     66  66 100 NE3       29.79R
GRAFTON AIRPOR FAIR      64  64 100 SE7       29.76S
VALLEY CITY AR CLOUDY    70  70 100 SE6       29.75R
CANDO          CLOUDY    66  66 100 NE9       29.77R THUNDER
CAVALIER APRT  PTSUNNY   66  64  94 NE3       29.78R
GWINNER        CLOUDY    70  70 100 SE9       29.74R
ROLLA          CLOUDY    63  63 100 N12       29.80R
 ***** THE ABOVE OBSERVATIONS ARE NON NWS ARE NOT QUALITY
       CONTROLLED AND MAY MIS-REPORT RAIN FOR SNOW...
$$

  *****  WEATHER ACROSS NORTHERN MINNESOTA  *****

CITY           SKY/WX    TMP DP  RH WIND       PRES   REMARKS
FLAG ISLAND    PTCLDY    66  63  88 SE10      29.86R
WARROAD        CLOUDY    63  57  82 SE5       29.86R
ROSEAU         CLOUDY    64  59  82 E5        29.84R
HALLOCK        CLOUDY    68  64  88 E8        29.77R
THF RVR FALLS  CLOUDY    64  63  94 E9        29.79S
BAUDETTE       MOCLDY    59  57  93 SE7       29.87R
WASKISH        CLOUDY    61  57  88 E7        29.87S
CROOKSTON      CLOUDY    68  64  88 E5        29.77R
$$
  *****  WEATHER ACROSS CENTRAL AND WEST MINNESOTA  *****

CITY           SKY/WX    TMP DP  RH WIND       PRES   REMARKS
FOSSTON        LGT RAIN  64  61  88 SE6       29.82R
BEMIDJI        CLOUDY    64  61  90 E13       29.81F
PARK RAPIDS    RAIN      64  64 100 E12       29.79F FOG
ELBOW LAKE     FAIR      67  66  96 SE15G22   29.72R
WADENA         LGT RAIN  64  63  94 SE25      29.71F
DETROIT LAKES  CLOUDY    66  64  94 SE12      29.74S
MOORHEAD       CLOUDY    70  70 100 S3        29.73R
FERGUS FALLS   CLOUDY    68  66  94 SE9       29.72R
MORRIS MN      CLOUDY    70  68  94 E10       29.72S
STAPLES        RAIN      63  63 100 E6        29.84F
$$
  *****  WEATHER ELSEWHERE ACROSS MINNESOTA  *****

CITY           SKY/WX    TMP DP  RH WIND       PRES   REMARKS
DULUTH         FOG       60  58  92 E9        29.91S VSB 1/4
INTRNTL FALLS  MOCLDY    57  57 100 SE12      29.91R
ELY            CLOUDY    61  57  88 SE3       29.96R
CLOQUET        CLOUDY    61  59  94 E6        29.91R FOG
WHEATON        CLOUDY    64  64 100 SE12      29.73R
BRAINERD       RAIN      63  63 100 E3        29.87S FOG
HIBBING        CLOUDY    61  58  90 SE7       29.92R
ALEXANDRIA     LGT RAIN  67  66  97 E16       29.79F
SAINT CLOUD    TSTM      67  65  93 NW3       29.85S FOG
MINNEAPOLIS    TSTM      71  69  93 CALM      29.83R
$$

  *****  WEATHER ACROSS SOUTH DAKOTA  *****

CITY           SKY/WX    TMP DP  RH WIND       PRES   REMARKS
SIOUX FALLS    MOCLDY    76  71  85 SW6       29.71R
BROOKINGS      NOT AVBL
WATERTOWN      CLOUDY    67  66  97 E5        29.74R
HURON          CLOUDY    69  66  90 N3        29.71R
SISSETON         N/A     69  68  96 S10       29.71R
ABERDEEN       CLOUDY    65  65 100 CALM      29.72R
MITCHELL       CLEAR     69  68  96 CALM      29.70R FOG
PIERRE         CLEAR     65  64  97 NW9       29.76R
MOBRIDGE       CLOUDY    65  65 100 NW13      29.76R
RAPID CITY     MOCLDY    64  60  87 NW13      29.90S
$$

  *****  SOME WEATHER IN NEARBY STATES *****

CITY           SKY/WX    TMP DP  RH WIND       PRES   REMARKS
GLASGOW MT     MOCLDY    63  58  83 NE12      29.88S
GREAT FALLS MT CLOUDY    55  54  94 N6        30.03S
CHEYENNE WY    CLEAR     56  44  64 W8        30.10R
SCOTTSBLUFF NE CLEAR     59  50  72 N8        29.96R
OMAHA NE       CLOUDY    78  67  68 S9        29.77S
DES MOINES IA  CLOUDY    77  69  76 S13       29.80S
DAVENPORT IA   PTCLDY    71  69  93 S6        29.88F
CHICAGO IL     TSTM      71  66  84 VRB3      29.92F
EAU CLAIRE WI  RAIN      66  64  93 E7        29.84F
LA CROSSE WI   CLOUDY    72  66  81 SE7       29.85R
$$

  *****  SOME NATIONAL WEATHER *****

CITY           SKY/WX    TMP DP  RH WIND       PRES   REMARKS
LA GUARDIA NY  CLOUDY    70  61  73 E3        30.03S
RALEIGH NC     PTCLDY    71  69  93 CALM      30.05R FOG
ATLANTA GA     MOCLDY    69  66  90 W5        30.12R
NEW ORLEANS LA MOCLDY    77  74  90 CALM      30.10S
OKLAHOMA CITY  PTCLDY    77  69  76 S13       29.94R
ALBUQUERQUE NM CLEAR     63  45  51 SE3       30.12R
SALT LAKE CITY CLOUDY    67  50  54 SE8       30.01R
LOS ANGELES CA CLEAR     67  60  78 W6        29.93S
BOISE ID       CLEAR     62  44  51 S3        29.93R
SEATTLE WA     MOCLDY    54  51  90 SW3       30.04S
$$

*** WEATHER ACROSS MANITOBA...SASKATCHEWAN AND ONTARIO ***
                ***ONTARIO***

CITY           SKY/WX    TMP DP  RH WIND       PRES   REMARKS
GERALDTON      CLOUDY    61  61 100 CALM      29.99R FOG
THUNDER BAY    DRIZZLE   61  61 100 SE2       29.98R FOG
SIOUX LOOKOUT  PTCLDY    57  57 100 SE6       29.93R
TORONTO        CLOUDY    66  64  94 S5        29.95R FOG
BIG TROUT LK   CLEAR     63  57  82 S12       29.95R
PICKLE LAKE    MOCLDY    57  57 100 S5        29.97
DRYDEN         CLEAR     61  59  94 SE6       29.92R
KENORA         CLEAR     61  59  94 SE6       29.89R
$$
                *** MANITOBA***

CITY           SKY/WX    TMP DP  RH WIND       PRES   REMARKS
BRANDON        CLOUDY    63  63 100 VRB2      29.80R
DAUPHIN        CLOUDY    64  63  94 VRB2      29.77S
ISLAND LAKE    PTCLDY    66  61  82 SE7       29.82S
PILOT MOUND      N/A     64  63  94 NE14        N/A
THE PAS        CLOUDY    61  57  88 NW14      29.82R
THOMPSON       LGT RAIN N/A N/A N/A NW10        N/A
WINNIPEG       CLOUDY    66  63  88 SE8       29.79S
LYNN LAKE      CLOUDY    52  52 100 MISG      29.88R
CHURCHILL      MOCLDY    48  48 100 N6        29.75R
GILLAM         CLOUDY    64  59  82 SE8       29.77R
$$
                ***SASKATCHEWAN***

CITY           SKY/WX    TMP DP  RH WIND       PRES   REMARKS
ESTEVAN        FOG       59  59 100 W8        29.83R VSB 1/4
KINDERSLEY     MOCLDY    55  54  94 N8        30.00R
LLOYDMINSTER   FOG       50  48  93 N9        30.06R VSB 1/4
PRINCE ALBERT  PTCLDY    55  55 100 N6        29.94R
REGINA         CLOUDY    61  59  94 N12       29.89R
YORKTON        CLOUDY    61  57  88 N17G23    29.83R
N. BATTLEFORD  CLOUDY    55  54  94 NW7       30.02R
LA RONGE       LGT RAIN  57  55  94 NW5       29.96R
SASKATOON      MOCLDY    57  57 100 N8        29.96R
SWIFT CURRENT  CLOUDY    57  57 100 NW7       29.96R FOG
$$
NOTE: THESE ARE AUTOMATED STATIONS WITH LIMITED QUALITY CONTROL
      "FAIR" INDICATES FEW OR NO CLOUDS BELOW 12,000 FEET WITH NO
      SIGNIFICANT WEATHER AND/OR OBSTRUCTIONS TO VISIBILITY.
      SKY/WX - SKY CONDITION AND SIGNIFICANT WEATHER.
      TMP - AIR TEMPERATURE.    DP   - DEWPOINT TEMPERATURE.
      RH  - RELATIVE HUMIDITY.  PRES - PRESSURE.
      HX  - HEAT INDEX.         WCI  - WIND CHILL INDEX.
$


USA.gov is the U.S. government's official web portal to all federal, state and local government web resources and services.